Regional Weather Roundup
Issued by NWS Charleston, SC

Current Version | Previous Version | Graphics & Text | Print | Product List | Glossary On
Versions: 1 2 3 4 5 6 7 8 9 10 11 12 13 14 15 16 17 18 19 20 21 22 23 24 25 26 27 28 29 30 31 32 33 34 35 36 37 38 39 40 41 42 43 44 45 46 47 48 49 50
542
ASUS42 KCHS 141128
RWRCHS

REGIONAL WEATHER ROUNDUP
NATIONAL WEATHER SERVICE CHARLESTON SC
600 AM EST SUN FEB 14 2016

NOTE: "FAIR" INDICATES FEW OR NO CLOUDS BELOW 12,000 FEET WITH NO
SIGNIFICANT WEATHER AND/OR OBSTRUCTIONS TO VISIBILITY.

NOT ALL STATIONS ARE QUALITY CONTROLLED BY THE NATIONAL
WEATHER SERVICE. USE DATA WITH CAUTION...ESPECIALLY
DEWPOINT OBSERVATIONS.

SCZ027-030-031-034>040-042>050-141200-
...SOUTHEAST SOUTH CAROLINA...

CITY           SKY/WX    TMP DP  RH WIND       PRES   REMARKS
N CHARLESTON   CLEAR     29   6  38 NE10G21   30.45R WCI  20
WATERFRONT PRK   N/A     32  18  56 N16       30.27R WCI  21
MOUNT PLEASANT FAIR      30  12  47 N8        30.46R WCI  23
JOHNS ISLAND   FAIR      30  10  43 N13       30.45R WCI  20
PINOPOLIS        N/A     30  16  55 NE12      30.36R WCI  21
MONCKS CORNER  FAIR      25   5  42 NE7       30.47R WCI  17
SUMMERVILLE    FAIR      30  14  51 NE3       30.47R
BEAUFORT MCAS  CLEAR     30  11  45 NE14      30.42R WCI  19
BEAUFORT ARPT  FAIR      32  16  51 NE18      30.42R WCI  20
HILTON HEAD IS NOT AVBL
WALTERBORO     SUNNY     32  10  40 NE9       30.46R WCI  24
ALLENDALE      FAIR      30   7  37 CALM      30.43S

...SOUTHERN MIDLANDS AND PEE DEE...

CITY           SKY/WX    TMP DP  RH WIND       PRES   REMARKS
GEORGETOWN     FAIR      27   9  46 N7        30.48R WCI  19
KINGSTREE      FAIR      27   3  36 N6        30.50R WCI  20
ORANGEBURG     CLEAR     27   6  41 NE7       30.46R WCI  19
BARNWELL       FAIR      30  10  43 E9        30.44R WCI  22
AIKEN          FAIR      25   5  42 NE7       30.45S WCI  17
MANNING        FAIR      27   3  36 N3        30.49R
COLUMBIA       CLEAR     27   2  34 E10       30.46R WCI  17
SUMTER         CLEAR     23   4  44 NE9       30.46R WCI  13
FLORENCE       CLOUDY    22   4  46 NE9       30.50R WCI  12
MYRTLE BEACH   CLEAR     25   1  36 NE12      30.50R WCI  14
N MYRTLE BEACH CLEAR     24   5  44 NE10      30.48R WCI  14

$$

GAZ063-065-086>088-099>101-113>116-118-119-134>141-150-141200-
...SOUTHEAST GEORGIA...

CITY           SKY/WX    TMP DP  RH WIND       PRES   REMARKS
SAVANNAH ARPT  CLEAR     33  17  51 NE14      30.39R WCI  23
HUNTER AAF     CLEAR     35  22  61 NE10      30.36R WCI  27
FORT STEWART   CLEAR     33  22  66 NE6       30.34R WCI  27
STATESBORO     CLEAR     34   9  35 NE6       30.41R WCI  29
SYLVANIA       SUNNY     31  16  52 E8        30.42R WCI  24
CLAXTON        FAIR      33  21  60 N9G16     30.40R WCI  25

...CSRA...CENTRAL AND FAR SOUTHEAST GEORGIA...

CITY           SKY/WX    TMP DP  RH WIND       PRES   REMARKS
THOMSON        PTCLDY    30  12  46 E8        30.46R WCI  22
AUGUSTA-BUSH   PTCLDY    27   9  46 E7        30.42F WCI  19
AUGUSTA-DANIEL PTCLDY    29   4  34 E12       30.41F WCI  19
SWAINSBORO     FAIR      32  18  55 NE8       30.40R WCI  25
VIDALIA        CLEAR     32  19  59 NE8       30.38R WCI  25
EASTMAN        FAIR      31  19  59 E3        30.39R
HAZLEHURST     FAIR      33  21  60 NE6       30.34R WCI  28
ALMA           PTCLDY    32  19  58 CALM      30.34R
WAYCROSS       CLEAR     35  26  69 CALM      30.35R
JESUP          FAIR      37  30  75 NE6       30.35R WCI  33
BAXLEY         FAIR      34  25  69 NE9       30.35R WCI  26
BRUNSWICK      CLEAR     37  34  87 N5        30.35R WCI  34
SAINT SIMONS   CLEAR     37  35  92 N7        30.32R WCI  32

$$

SCZ027-028-034-036>038-045-046-048>050-GAZ119-141-141200-
...LAKE AND SUPPLEMENTAL COASTAL OBSERVATIONS...

STATION/POSITION TIME  TEMP    WIND        PRES    WAVE   SWELL
                       AIR SEA DIR/SP/G            HT/PER HT/PER/DIR
                 (UTC) (F)     (DEG/KT/KT) (MB)    (FT/S) (FT/S/D)
WINYAH BAY       1000   28      30/  7     1030.0
LAKE MURRAY      1000   27      50/  3/  7 1030.1R
ACE BASIN NERRS  1045   29      30/  4     1030.0R
FORT PULASKI     1100   36 49   20/ 16/ 20 1029.4R
SAPELO ISLAND    1100   40      20/  8     1027.0R

$$

ANZ835-935-AMZ111-154-330-350-352-354-370-450-454-472-141200-
...C-MAN AND BUOY OBSERVATIONS...

STATION/POSITION TIME  TEMP    WIND        PRES    WAVE   SWELL
                       AIR SEA DIR/SP/G            HT/PER HT/PER/DIR
                 (UTC) (F)     (DEG/KT/KT) (MB)    (FT/S) (FT/S/D)
BUOY 41004       1050   42 65   40/ 19/ 25 1028.8R   5/ 6   2/16
BUOY 41008       1050   49 53   50/ 12/ 14 1027.0R   2/ 8   2/ 70/ 8
FOLLY BEACH CMAN 1100   32      10/ 19/ 23 1030.7R
CAPERS NEARSHORE 1008   35      40/ 21/ 27 1029.5R
FRIPP NEARSHORE  1000   38      40/ 23/ 27 1027.1R


STATION/POSITION TIME  TEMP    WIND        PRES    WAVE   SWELL
                       AIR SEA DIR/SP/G            HT/PER HT/PER/DIR
                 (UTC) (F)     (DEG/KT/KT) (MB)    (FT/S) (FT/S/D)
5E ST. MARYS GA  1021      55                N/A     2/ 8
FRYING PAN BUOY  1100   34 60   10/ 17/ 25 1031.0R
BUOY 41025       1050   29 72  360/ 23/ 29 1030.9R   6/ 6   2/100/10
CAPE LOOKOUT NC  1100   23      10/ 19/ 23 1031.4
BUOY 41002       1050   48 67  360/ 14/ 21   N/A     9/10   8/ 10/10
BUOY 41010       1020   60 72              1023.6R
ST AUGUSTINE FL  1100   53 56   50/  8/  9 1026.1R


$$




USA.gov is the U.S. government's official web portal to all federal, state and local government web resources and services.